Hourly Weather Stawiska

Today, 3 July, Friday

Time Temperature Precipitation Wind Pressure Humidity
00:00 +14°C° 0.1 mm 0 mps 691 mmHg 93%
01:00 +14°C° 0.1 mm 0 mps 692 mmHg 94%
02:00 +14°C° 0.1 mm 0 mps 691 mmHg 94%
03:00 +14°C° 0.1 mm 0 mps 691 mmHg 93%
04:00 +13°C° 0.1 mm 0 mps 691 mmHg 93%
05:00 +15°C° 0.4 mm 0 mps 692 mmHg 93%
06:00 +18°C° 0.4 mm 1 mps 692 mmHg 92%
07:00 +19°C° 0.4 mm 1 mps 693 mmHg 91%
08:00 +19°C° 0.5 mm 1 mps 693 mmHg 90%
09:00 +19°C° 0.5 mm 1 mps 693 mmHg 90%
10:00 +19°C° 0.5 mm 1 mps 693 mmHg 89%
11:00 +19°C° 0.1 mm 1 mps 693 mmHg 86%
12:00 +18°C° 0.1 mm 2 mps 694 mmHg 82%
13:00 +18°C° 0.1 mm 2 mps 694 mmHg 79%
14:00 +19°C° 0.1 mm 1 mps 694 mmHg 83%
15:00 +18°C° 0.1 mm 1 mps 694 mmHg 88%
16:00 +16°C° 0.1 mm 1 mps 693 mmHg 92%
17:00 +16°C° 0 mm 1 mps 694 mmHg 92%
18:00 +16°C° 0 mm 1 mps 694 mmHg 93%
19:00 +16°C° 0 mm 1 mps 694 mmHg 93%
20:00 +15°C° 0 mm 1 mps 694 mmHg 94%
21:00 +14°C° 0 mm 1 mps 694 mmHg 95%
22:00 +13°C° 0 mm 1 mps 695 mmHg 96%
23:00 +13°C° 0 mm 1 mps 695 mmHg 96%

Tomorrow, 4 July, Saturday

Time Temperature Precipitation Wind Pressure Humidity
00:00 +13°C° 0 mm 1 mps 695 mmHg 96%
01:00 +12°C° 0 mm 1 mps 695 mmHg 96%
02:00 +12°C° 0 mm 1 mps 695 mmHg 97%
03:00 +12°C° 0 mm 1 mps 695 mmHg 97%
04:00 +12°C° 0 mm 1 mps 695 mmHg 97%
05:00 +13°C° 0 mm 1 mps 695 mmHg 92%
06:00 +15°C° 0 mm 1 mps 696 mmHg 87%
07:00 +16°C° 0 mm 1 mps 696 mmHg 83%
08:00 +19°C° 0 mm 1 mps 697 mmHg 74%
09:00 +20°C° 0 mm 1 mps 697 mmHg 65%
10:00 +21°C° 0 mm 2 mps 697 mmHg 56%
11:00 +21°C° 0 mm 2 mps 697 mmHg 55%
12:00 +23°C° 0 mm 2 mps 697 mmHg 54%
13:00 +23°C° 0 mm 2 mps 697 mmHg 54%
14:00 +23°C° 0 mm 2 mps 696 mmHg 54%
15:00 +23°C° 0 mm 2 mps 696 mmHg 54%
16:00 +23°C° 0 mm 2 mps 696 mmHg 54%
17:00 +21°C° 0 mm 1 mps 696 mmHg 61%
18:00 +20°C° 0 mm 1 mps 695 mmHg 68%
19:00 +18°C° 0 mm 1 mps 695 mmHg 74%
20:00 +16°C° 0 mm 1 mps 695 mmHg 78%
21:00 +13°C° 0 mm 0 mps 695 mmHg 81%
22:00 +12°C° 0 mm 0 mps 695 mmHg 84%
23:00 +12°C° 0 mm 0 mps 695 mmHg 85%

Day after tomorrow, 5 July, Sunday

Time Temperature Precipitation Wind Pressure Humidity
00:00 +11°C° 0 mm 0 mps 695 mmHg 86%
01:00 +11°C° 0 mm 0 mps 695 mmHg 87%
02:00 +11°C° 0 mm 0 mps 694 mmHg 87%
03:00 +11°C° 0 mm 1 mps 694 mmHg 87%
04:00 +11°C° 0 mm 1 mps 694 mmHg 87%
05:00 +14°C° 0 mm 1 mps 695 mmHg 80%
06:00 +16°C° 0 mm 1 mps 695 mmHg 73%
07:00 +19°C° 0 mm 1 mps 695 mmHg 66%
08:00 +21°C° 0 mm 1 mps 696 mmHg 60%
09:00 +22°C° 0 mm 1 mps 696 mmHg 54%
10:00 +24°C° 0 mm 2 mps 696 mmHg 49%
11:00 +24°C° 0 mm 2 mps 696 mmHg 49%
12:00 +25°C° 0 mm 2 mps 696 mmHg 49%
13:00 +25°C° 0 mm 3 mps 696 mmHg 49%
14:00 +25°C° 0 mm 3 mps 696 mmHg 52%
15:00 +25°C° 0 mm 3 mps 695 mmHg 55%
16:00 +25°C° 0 mm 3 mps 695 mmHg 59%
17:00 +23°C° 0 mm 2 mps 695 mmHg 67%
18:00 +21°C° 0 mm 2 mps 694 mmHg 76%
19:00 +20°C° 0 mm 1 mps 694 mmHg 85%
20:00 +19°C° 0 mm 1 mps 694 mmHg 88%
21:00 +18°C° 0 mm 1 mps 694 mmHg 91%
22:00 +16°C° 0 mm 1 mps 694 mmHg 94%
23:00 +15°C° 0 mm 1 mps 694 mmHg 95%

6 July, Monday

Time Temperature Precipitation Wind Pressure Humidity
00:00 +15°C° 0 mm 1 mps 694 mmHg 95%
01:00 +15°C° 0 mm 1 mps 693 mmHg 95%
02:00 +15°C° 0 mm 1 mps 693 mmHg 95%
03:00 +15°C° 0 mm 1 mps 693 mmHg 95%
04:00 +14°C° 0 mm 1 mps 693 mmHg 96%
05:00 +16°C° 0 mm 1 mps 693 mmHg 90%
06:00 +19°C° 0 mm 1 mps 693 mmHg 85%
07:00 +19°C° 0 mm 2 mps 694 mmHg 80%
08:00 +20°C° 0 mm 2 mps 694 mmHg 73%
09:00 +23°C° 0 mm 2 mps 694 mmHg 67%
10:00 +24°C° 0 mm 2 mps 694 mmHg 61%
11:00 +25°C° 0 mm 3 mps 694 mmHg 58%
12:00 +25°C° 0 mm 3 mps 693 mmHg 55%
13:00 +26°C° 0 mm 3 mps 693 mmHg 52%
14:00 +26°C° 0 mm 3 mps 693 mmHg 53%
15:00 +25°C° 0 mm 3 mps 693 mmHg 53%
16:00 +25°C° 0 mm 3 mps 692 mmHg 54%
17:00 +24°C° 0 mm 3 mps 692 mmHg 63%
18:00 +21°C° 0 mm 3 mps 692 mmHg 72%
19:00 +19°C° 0 mm 2 mps 692 mmHg 81%
20:00 +18°C° 0 mm 2 mps 692 mmHg 86%
21:00 +16°C° 0 mm 2 mps 692 mmHg 92%
22:00 +15°C° 0 mm 2 mps 692 mmHg 97%
23:00 +14°C° 0 mm 2 mps 692 mmHg 95%

7 July, Tuesday

Time Temperature Precipitation Wind Pressure Humidity
00:00 +13°C° 0 mm 2 mps 693 mmHg 93%
01:00 +13°C° 0 mm 2 mps 693 mmHg 92%
02:00 +12°C° 0 mm 2 mps 693 mmHg 91%
03:00 +12°C° 0 mm 2 mps 693 mmHg 89%
04:00 +12°C° 0 mm 2 mps 693 mmHg 88%
05:00 +12°C° 0.1 mm 2 mps 694 mmHg 89%
06:00 +10°C° 0.1 mm 2 mps 694 mmHg 90%
07:00 +10°C° 0.1 mm 2 mps 694 mmHg 91%
08:00 +10°C° 0.7 mm 2 mps 694 mmHg 92%
09:00 +10°C° 0.7 mm 2 mps 694 mmHg 92%
10:00 +11°C° 0.7 mm 1 mps 695 mmHg 92%
11:00 +11°C° 1 mm 1 mps 695 mmHg 90%
12:00 +12°C° 1 mm 2 mps 695 mmHg 89%
13:00 +12°C° 1 mm 2 mps 695 mmHg 87%
14:00 +13°C° 0.3 mm 2 mps 695 mmHg 84%
15:00 +13°C° 0.3 mm 2 mps 695 mmHg 82%
16:00 +13°C° 0.3 mm 3 mps 695 mmHg 79%
17:00 +13°C° 0.2 mm 2 mps 695 mmHg 82%
18:00 +12°C° 0.2 mm 2 mps 695 mmHg 85%
19:00 +12°C° 0.2 mm 2 mps 695 mmHg 89%
20:00 +11°C° 0.1 mm 1 mps 695 mmHg 90%
21:00 +10°C° 0.1 mm 1 mps 695 mmHg 91%
22:00 +8°C° 0.1 mm 1 mps 695 mmHg 92%
23:00 +8°C° 0 mm 1 mps 695 mmHg 93%

8 July, Wednesday

Time Temperature Precipitation Wind Pressure Humidity
00:00 +7°C° 0 mm 1 mps 695 mmHg 93%
01:00 +6°C° 0 mm 1 mps 695 mmHg 93%
02:00 +6°C° 0 mm 1 mps 695 mmHg 93%
03:00 +5°C° 0 mm 0 mps 695 mmHg 93%
04:00 +5°C° 0 mm 0 mps 695 mmHg 93%
05:00 +8°C° 0 mm 1 mps 696 mmHg 88%
06:00 +10°C° 0 mm 1 mps 696 mmHg 83%
07:00 +11°C° 0 mm 1 mps 697 mmHg 78%
08:00 +13°C° 0 mm 1 mps 697 mmHg 70%
09:00 +14°C° 0 mm 2 mps 697 mmHg 63%
10:00 +14°C° 0 mm 3 mps 697 mmHg 56%
11:00 +16°C° 0 mm 3 mps 697 mmHg 55%
12:00 +16°C° 0 mm 3 mps 697 mmHg 53%
13:00 +17°C° 0 mm 3 mps 697 mmHg 52%
14:00 +17°C° 0 mm 3 mps 697 mmHg 54%
15:00 +17°C° 0 mm 3 mps 697 mmHg 56%
16:00 +16°C° 0 mm 2 mps 697 mmHg 57%
17:00 +15°C° 0 mm 2 mps 697 mmHg 65%
18:00 +14°C° 0 mm 1 mps 697 mmHg 73%
19:00 +13°C° 0 mm 1 mps 697 mmHg 81%
20:00 +11°C° 0 mm 1 mps 697 mmHg 84%
21:00 +10°C° 0 mm 1 mps 697 mmHg 88%
22:00 +8°C° 0 mm 0 mps 697 mmHg 91%
23:00 +7°C° 0 mm 0 mps 697 mmHg 91%
Show more